星链-31961 (STARLINK-31961 )

导读 | 豆包AI

STARLINK-31961是美国SpaceX公司星链星座的一员,于北京时间2024年5月28日08:00成功发射。星链项目旨在打造全球覆盖的低轨卫星互联网,可提供10-30Mbps上传、45-280Mbps下载的网络服务,延迟25-60ms,满足流媒体、视频通话等日常需求。STARLINK-31961运行在近地轨道,将与其他星链卫星组网,进一步扩展星座规模,推进全球无缝互联目标实现。

基本信息
目录编号:
59894
目录名称:
STARLINK-31961
国际标识:
2024-100K
轨道中心:
EARTH
卫星名称:
星链-31961
卫星全名:
星链-31961 (STARLINK-31961 )
卫星状态:
在轨 (已飞行703 天)
发射日期:
2024-05-28 UTC
国别 :
美国 (US)
星等 :
--
轨道信息
数据来源 国际轨道数据
星历时间: 2026-04-30T21:54:49+0800
12小时前
查看轨道信息
半长轴: 6861.156km
偏心率: 0.0001861
轨道倾角: 43.003°
近地点辐角 274.484°
升交点赤经 185.354°
平近点角 85.580°
近地点: 481.742km
远地点: 484.296km
周期: 94.266分钟
每日圈数: 15.275901
详细信息
固有亮度:
5
最大亮度:
1.5
卫星平台:
Starlink v2.0 mini
覆盖范围:
全球
运营商:
太空探索技术公司
运营商所在国:
美国
制造商(研发单位):
太空探索技术公司
制造商所在国:
美国
使用方式:
暂无
卫星简介
星链(Starlink)计划是由太空探索技术公司(SpaceX)提出的一个巨型低轨卫星互联网星座项目,计划在2019年至2024年间在太空搭建由约1.2万颗卫星组成的“星链”网络,其中1584颗将部署在地球上空550千米处的近地轨道,并从2020年开始工作。该卫星仍在工作。
2D轨道图
3D轨道图
轨道高度分析图
轨道倾角分析图
轨道综合分析图
查看轨道综合分析图